Wind_Gust
7 7 10 9 8 11 13 13 11 13 14 13 12 12 13 13 10 8 8 9 9 6 10 8 8 5 10 5 7 7 6 6 6 7 7 7 5 6 7 7 8 9 11 12 11 12 17 20 22 23 25 26 23 18 16 16 14 14 12 12 13 16
8 9 9 10 9 11 10 11 10 9 7 10 10 10 9 9 12 8 8 7 7 5 6 9 5 7 3 5 5 8 7 6 5 5 6 7 7 6 5 6 7 9 11 11 11 9 13 19 24 23 25 24 19 15 14 12 11 13 13 11 12 17
8 9 9 10 10 11 13 10 12 11 9 12 13 13 6 8 11 7 10 8 8 7 8 9 6 7 7 8 6 10 9 8 7 8 7 7 8 10 6 7 9 10 11 13 10 9 11 10 16 21 20 18 15 16 15 14 12 12 13 12 10 20
8 9 10 12 12 13 10 9 9 7 8 9 7 11 9 10 10 12 9 8 10 8 7 10 12 15 13 8 8 11 13 12 13 12 11 9 7 10 11 9 9 11 8 8 7 9 12 12 12 10 12 14 15 15 14 12 12 12 11 14 14 22
8 9 9 9 7 10 9 9 10 9 11 10 13 11 11 11 10 12 10 14 14 10 10 11 8 9 9 8 8 8 8 9 8 7 11 9 8 10 10 8 11 12 10 11 8 10 16 13 12 11 12 15 16 15 16 14 13 13 12 10 15 22
6 8 9 10 10 9 10 10 9 11 15 10 12 11 11 11 12 13 11 12 11 11 10 11 10 9 9 9 10 11 8 8 6 7 9 10 9 9 4 10 9 19 17 9 11 10 15 15 14 12 14 15 16 15 15 14 13 12 11 11 16 22
7 6 5 6 9 10 9 10 12 10 12 10 10 11 11 11 13 11 11 10 12 12 12 12 12 9 9 9 9 9 9 9 10 10 9 10 10 10 10 11 12 14 18 13 11 10 16 14 16 16 14 15 16 17 17 16 14 14 13 14 15 23
5 8 8 6 10 11 11 12 11 11 11 12 12 10 10 11 11 12 9 11 9 13 11 11 11 9 7 8 10 9 9 11 10 12 10 9 12 12 13 11 9 8 14 8 9 10 16 16 16 14 14 14 16 16 14 17 17 16 15 14 15 22
7 7 11 12 11 11 11 12 11 10 10 11 11 12 11 11 12 12 12 11 10 10 11 11 10 8 9 9 9 10 11 10 10 12 12 11 10 11 11 11 13 13 8 11 12 17 18 18 16 14 14 16 15 17 16 16 15 17 17 16 14 20
8 9 10 11 9 11 11 12 10 10 11 12 11 11 9 12 11 10 10 9 10 9 9 8 9 8 10 8 9 8 10 10 10 9 11 12 11 10 10 10 11 12 14 12 13 10 15 14 15 13 15 16 17 18 17 18 18 17 14 15 15 17
9 9 9 10 9 9 8 9 10 10 11 12 11 12 11 11 10 10 9 8 8 8 7 7 8 8 9 8 9 8 9 9 10 10 9 10 11 10 10 10 9 10 11 15 14 11 11 11 12 12 13 14 18 17 18 18 19 17 15 16 14 12
9 9 10 8 9 9 9 9 9 11 10 9 9 11 10 9 9 8 8 8 6 7 7 7 6 9 5 7 7 8 8 9 9 10 9 9 13 12 8 9 8 9 11 15 13 12 14 13 11 14 21 22 17 19 18 16 18 17 18 14 13 12
10 10 9 9 11 8 8 10 10 10 9 9 10 11 10 9 10 8 9 9 8 6 6 8 8 7 6 8 7 8 9 8 8 9 8 9 11 9 12 11 10 9 13 14 14 11 14 14 15 16 15 13 14 15 16 16 15 15 17 13 13 13
10 11 10 9 9 9 9 8 8 10 10 10 10 11 10 10 10 9 9 7 8 7 6 7 7 7 7 8 8 8 7 8 8 7 8 8 10 9 12 13 11 12 12 14 13 9 14 16 14 15 14 10 11 12 12 16 15 15 14 13 12 13
8 7 9 9 9 10 9 9 9 8 7 8 10 11 9 9 9 9 9 10 9 8 7 6 6 7 7 7 9 7 7 6 7 7 9 10 8 10 11 10 10 14 11 13 12 13 13 13 14 15 12 12 15 16 15 13 13 15 15 13 11 11
10 9 9 8 6 7 9 7 8 8 9 8 10 11 11 9 9 7 8 10 8 7 7 7 7 7 7 7 9 7 4 6 7 7 8 9 8 11 9 10 12 10 14 12 14 13 12 13 12 13 11 13 14 14 13 12 12 14 13 13 12 11
9 8 7 8 8 8 10 8 7 7 9 10 13 12 10 10 10 11 10 9 7 7 6 7 7 7 6 8 7 7 8 6 7 7 7 8 9 8 7 10 10 11 11 11 13 10 11 11 11 11 12 12 11 12 11 12 12 12 13 12 11 11
7 6 7 8 8 8 9 10 9 6 9 10 9 9 10 10 10 11 12 11 8 7 6 6 7 6 7 7 6 6 6 8 8 10 8 9 8 7 7 8 11 11 11 13 10 11 9 9 10 11 11 11 10 10 12 11 11 11 11 10 9 10
9 8 7 8 6 8 9 7 6 8 11 10 8 9 10 9 8 10 10 9 8 7 6 5 6 6 8 7 9 8 7 6 8 8 9 8 9 8 8 9 10 10 12 14 13 11 11 10 10 9 11 9 7 8 10 11 11 12 10 11 11 11
10 7 7 8 8 11 10 8 9 9 11 8 9 10 10 11 10 8 7 9 6 7 7 7 6 5 6 6 7 8 9 8 7 8 9 9 8 9 7 7 8 10 10 10 9 8 9 13 10 8 7 9 7 7 8 10 10 10 10 10 11 10
10 6 10 9 8 11 8 7 7 7 8 7 9 7 10 7 9 10 9 8 6 8 8 8 8 9 9 8 7 6 8 7 7 7 7 6 4 6 6 5 6 6 10 10 9 9 9 9 10 7 8 8 8 7 8 6 8 10 11 10 9 12
11 7 9 11 11 10 10 9 7 8 8 9 10 11 8 6 8 10 10 8 9 6 8 8 9 9 7 7 7 8 7 5 6 6 5 5 6 8 9 10 7 9 7 10 9 9 10 11 8 8 8 4 8 9 6 6 3 8 9 9 10 10
11 9 9 8 9 8 8 9 7 9 9 8 6 9 10 8 8 9 8 9 10 10 7 6 7 7 8 6 6 7 6 8 6 5 7 8 8 9 9 9 8 10 7 6 8 8 8 7 8 6 7 9 7 7 8 8 7 4 9 8 9 9
12 10 8 10 8 10 10 8 6 9 6 11 10 8 8 9 9 9 9 9 8 9 9 9 9 10 9 7 6 7 7 8 8 5 6 7 7 7 8 8 8 9 12 5 7 7 7 6 9 9 8 5 9 9 6 7 4 6 6 7 10 8
12 10 9 10 10 13 10 7 8 10 9 9 9 8 9 7 7 7 8 8 9 9 8 9 8 7 9 6 6 6 7 6 7 8 8 9 9 7 7 6 6 8 7 10 7 4 5 6 4 5 10 8 6 6 8 7 7 7 5 6 7 9
12 9 11 10 10 13 9 12 11 12 9 8 8 9 9 10 7 8 9 7 7 9 8 7 8 6 7 5 6 6 7 8 7 10 10 9 8 11 10 10 9 7 8 5 9 5 5 3 4 5 5 6 11 10 9 7 7 12 4 3 7 10
12 10 10 11 9 10 10 11 12 12 10 11 11 7 6 7 11 9 10 9 8 6 8 8 6 6 5 6 6 6 6 8 8 8 9 11 11 8 9 9 9 10 9 9 9 5 4 4 5 6 6 5 3 4 9 10 10 4 5 7 4 7
12 11 8 11 11 12 13 11 10 9 9 9 9 9 7 10 9 9 9 8 7 7 7 8 6 4 6 6 7 6 6 6 7 7 9 9 9 8 8 7 8 8 9 9 8 11 6 8 8 5 5 7 8 9 6 9 5 10 9 8 7 7
12 12 13 10 12 12 13 12 12 11 8 7 8 7 9 10 9 9 9 8 7 7 6 6 7 7 4 4 6 9 9 9 8 7 8 9 7 8 7 7 8 10 9 8 8 5 8 7 7 6 6 7 8 10 7 7 10 10 5 5 5 6
14 13 14 12 13 13 12 11 11 8 9 7 9 7 9 10 11 10 9 7 6 8 8 8 6 6 7 7 7 8 10 9 8 9 8 7 7 7 6 6 6 7 7 8 6 7 9 8 8 7 7 5 7 7 8 9 9 10 6 6 7 7
14 14 14 15 13 14 13 12 12 10 9 9 12 10 8 8 10 8 10 8 8 7 6 8 9 5 7 7 6 7 8 7 6 7 8 8 7 7 6 7 6 6 7 8 7 8 7 5 6 8 7 9 8 8 6 5 4 5 5 5 7 8
14 15 15 13 14 15 14 14 10 9 10 11 10 11 12 12 11 10 9 11 9 10 9 8 8 9 7 6 8 7 6 6 6 8 8 7 8 8 7 7 6 6 6 6 6 8 6 6 6 7 6 7 7 7 9 8 5 6 6 4 4 5
16 14 17 13 14 15 13 12 11 9 9 11 12 10 12 12 11 11 11 10 10 10 9 8 8 9 7 8 8 8 8 7 6 6 7 7 6 7 6 6 6 6 6 6 6 7 8 5 6 6 7 4 9 8 6 4 6 6 3 6 7 4
18 17 15 13 15 16 16 13 12 11 10 11 11 10 11 13 11 11 12 12 11 12 11 10 10 9 11 10 7 8 7 6 6 8 9 8 8 6 7 8 8 8 6 6 6 6 7 6 5 4 5 7 5 5 4 5 5 7 6 6 4 4
18 18 16 17 14 16 16 15 12 12 11 10 12 11 12 12 11 12 11 12 11 12 12 10 12 11 9 11 8 8 7 7 6 7 7 6 6 6 6 7 8 7 6 6 6 7 6 6 7 6 4 6 3 3 3 3 5 4 6 6 8 7
21 18 18 17 15 16 15 14 13 12 12 11 10 10 11 10 10 13 12 13 12 12 12 11 10 11 9 12 10 9 8 7 6 6 6 6 6 7 7 8 7 6 6 6 8 6 5 6 5 4 5 2 3 5 2 5 5 6 6 6 5 7
19 18 17 17 17 15 16 12 14 13 12 11 11 10 12 10 11 11 13 11 13 13 10 11 10 11 12 10 11 11 9 8 7 6 6 6 7 7 7 7 8 6 6 6 6 7 6 7 6 4 4 4 5 6 4 4 4 6 5 4 7 6
Wind_Speed
4 4 4 4 3 3 5 9 8 8 9 8 8 7 7 6 5 4 5 6 6 1 1 2 2 1 4 2 5 4 3 3 3 3 3 3 4 3 2 1 3 6 9 9 8 10 14 16 17 18 19 18 14 7 6 5 5 5 5 6 6 7
4 5 4 4 3 2 2 4 3 2 2 3 5 4 2 1 2 1 5 4 3 1 1 1 1 1 1 1 3 5 3 3 2 3 4 2 4 3 2 1 0 4 8 9 8 6 8 15 18 18 18 15 7 5 5 5 5 5 4 4 5 10
5 4 4 3 2 1 1 3 2 3 2 3 2 3 3 3 4 4 4 2 1 2 2 3 4 5 2 3 3 6 6 5 5 6 5 4 3 3 2 2 1 3 5 7 6 6 6 6 8 16 13 8 6 5 5 5 5 5 6 5 5 15
5 4 3 2 2 2 2 3 2 2 3 3 4 3 3 1 4 5 5 5 5 4 4 6 8 10 8 4 5 8 9 9 9 8 7 5 4 1 3 2 1 3 3 3 5 6 6 7 6 6 6 6 6 6 5 5 5 4 4 4 6 18
3 3 3 3 3 3 2 1 4 2 4 4 5 4 2 3 5 6 6 6 6 4 5 5 4 5 6 5 5 5 5 5 3 3 5 5 4 2 2 2 0 0 1 3 4 6 8 7 5 6 6 5 5 5 5 5 5 5 6 6 9 17
3 3 3 3 4 3 3 2 4 5 6 5 5 4 5 6 6 5 5 6 6 6 6 6 5 5 5 5 5 5 5 4 4 3 4 4 4 4 1 2 3 2 2 4 3 6 8 8 7 6 5 5 6 5 6 5 5 5 5 6 9 17
2 1 3 3 2 1 2 3 4 5 7 5 5 6 6 6 6 5 5 5 7 6 5 5 6 5 5 4 5 3 3 2 4 6 4 6 5 4 2 2 2 3 1 4 3 5 9 8 7 8 6 6 6 6 5 5 5 5 5 5 9 17
3 5 4 4 4 5 5 7 6 5 6 6 6 6 6 6 6 6 4 5 5 6 5 5 4 5 3 4 4 3 3 5 6 5 3 5 5 5 5 1 2 3 3 3 4 6 9 8 7 7 7 6 6 6 6 6 5 5 5 5 6 14
3 5 5 4 5 6 7 6 6 6 6 5 6 6 5 5 6 5 4 4 4 6 6 5 4 3 2 5 3 4 4 4 5 5 5 5 5 5 4 3 1 4 4 4 5 6 7 7 6 6 7 7 6 6 6 6 5 5 4 4 5 10
4 5 6 5 5 6 6 7 6 6 6 5 5 5 5 5 5 6 5 4 4 5 5 3 3 3 4 4 3 4 5 5 5 5 5 6 5 4 4 2 2 5 8 5 4 4 4 5 6 6 7 8 7 6 6 6 5 5 4 5 5 7
4 3 4 5 5 5 5 6 6 6 6 6 5 5 5 6 5 6 4 4 4 4 4 3 3 3 3 3 4 4 5 4 6 5 5 5 4 4 3 3 4 6 6 5 5 5 5 6 6 6 6 8 7 6 6 5 5 5 5 5 5 4
4 4 6 5 4 5 5 6 6 6 6 5 5 6 5 5 5 4 4 4 4 4 4 3 3 3 3 3 4 5 4 5 4 5 4 4 5 4 3 4 5 5 6 7 7 6 5 7 7 7 7 8 7 6 6 6 6 5 4 4 4 4
4 4 5 6 6 5 5 4 6 6 5 5 5 5 6 6 5 4 4 4 3 4 3 4 3 3 3 3 3 4 4 3 3 3 4 3 3 4 5 5 6 5 7 8 7 5 5 5 7 6 6 7 6 5 5 5 5 4 4 4 4 4
4 6 6 6 5 5 4 5 5 6 5 5 5 6 5 5 5 4 4 4 4 4 4 4 4 4 3 4 3 3 3 4 4 4 3 3 5 5 5 6 5 7 6 7 7 5 7 7 6 6 6 6 5 5 5 6 5 5 4 4 4 4
4 5 5 5 6 5 4 5 6 5 4 5 5 6 6 5 5 4 3 3 3 4 4 4 3 4 3 3 3 3 4 3 3 3 3 3 4 5 5 5 5 7 6 7 7 6 7 7 7 7 7 6 6 6 6 6 5 5 5 4 4 4
4 5 6 5 4 4 5 4 5 4 5 4 6 6 6 5 5 4 3 3 3 4 4 4 4 3 4 3 3 3 2 3 3 3 4 4 5 6 4 5 3 6 8 6 8 6 6 7 7 7 6 6 6 6 6 5 5 5 5 5 4 4
5 6 5 4 4 4 6 5 4 4 5 6 6 6 5 5 5 5 3 3 3 4 4 4 4 3 4 3 3 4 3 3 3 3 4 4 5 4 3 5 4 3 6 6 7 6 6 6 7 6 7 6 5 5 6 6 5 5 5 4 4 3
4 4 4 5 4 5 5 5 4 3 5 6 5 5 6 5 5 4 3 4 4 4 4 4 4 4 4 3 3 3 3 4 3 4 5 5 4 3 4 4 5 3 4 7 6 7 5 5 5 6 6 6 5 5 5 5 4 4 6 5 4 5
3 4 4 5 4 4 4 4 4 5 7 6 5 4 5 4 3 4 5 4 4 3 3 4 4 4 5 4 4 3 4 3 3 5 5 5 5 5 5 5 6 6 6 5 5 5 6 6 6 5 5 4 4 4 5 4 5 5 6 6 6 5
4 4 4 4 4 4 5 4 5 5 6 4 4 4 3 4 4 5 4 5 4 3 3 4 4 4 4 3 4 3 3 3 4 5 5 5 5 5 4 5 5 6 7 5 4 3 4 7 5 5 4 4 3 4 5 6 6 6 6 6 7 6
4 4 6 5 3 4 4 3 3 4 5 4 5 4 3 2 4 4 4 4 4 3 4 4 4 4 4 3 3 3 4 3 4 4 4 3 3 3 3 3 3 3 5 5 4 3 3 5 6 3 3 3 3 2 3 4 5 6 7 7 6 7
3 4 6 6 4 4 3 4 3 4 3 4 5 6 3 3 3 4 4 4 4 4 4 4 3 4 4 4 3 3 3 3 4 4 3 3 4 4 5 5 3 5 3 4 2 3 2 3 3 2 3 1 3 3 2 3 2 2 5 5 6 6
4 5 5 5 4 4 1 2 3 2 5 2 0 3 4 3 4 5 4 5 4 4 4 3 3 3 4 4 4 3 3 3 3 2 4 5 4 6 5 5 4 6 4 3 3 3 4 3 3 1 1 4 1 1 2 3 2 1 1 4 5 5
5 5 4 4 4 4 4 4 2 5 4 5 3 2 4 3 4 6 5 4 4 4 3 4 4 3 3 3 4 4 3 4 3 3 4 5 5 4 4 4 4 3 5 3 2 2 2 1 4 4 1 0 1 2 0 3 1 3 0 2 4 5
6 5 4 4 4 4 3 3 4 2 3 5 6 4 4 2 2 4 4 5 4 4 4 4 4 4 3 3 3 3 4 4 4 3 4 5 5 4 4 4 4 4 3 6 2 0 1 3 3 1 4 3 2 1 3 3 0 3 1 1 3 3
5 4 4 4 4 3 4 5 4 5 5 4 4 5 5 5 4 4 5 3 4 4 4 3 3 3 3 3 3 3 4 4 4 5 6 5 4 4 5 5 3 4 4 1 5 3 1 2 3 3 2 1 4 3 3 2 2 3 1 1 2 4
7 6 4 4 4 4 4 4 6 6 6 6 7 3 2 3 5 4 4 4 4 3 4 4 3 3 4 3 3 3 4 4 4 4 3 5 6 5 4 3 2 5 3 3 4 3 2 1 2 3 2 1 1 1 4 5 4 1 1 2 0 3
6 6 4 4 3 6 6 5 6 5 5 6 6 5 4 4 3 4 5 4 4 4 4 4 3 3 4 4 3 3 3 4 4 3 4 5 5 4 5 3 4 4 4 4 5 6 2 1 4 1 2 4 3 3 4 3 2 5 4 3 3 1
7 6 4 4 4 5 7 7 7 6 5 4 4 4 4 3 5 3 5 3 4 3 3 3 3 3 1 3 3 4 4 4 4 4 3 4 3 4 4 4 4 5 5 4 4 3 5 2 3 1 0 1 3 4 3 3 2 2 1 2 1 2
8 6 5 5 5 7 7 7 7 5 6 4 2 2 5 5 4 4 5 4 3 3 3 3 2 3 4 4 4 5 4 4 4 4 3 4 4 4 4 4 4 5 4 5 3 4 5 4 4 2 1 2 2 1 2 2 3 3 3 1 3 2
9 7 5 7 5 8 6 6 7 6 6 5 4 5 4 4 3 3 4 4 4 4 3 3 3 2 4 4 4 4 5 4 4 3 4 4 4 4 4 4 4 4 5 5 4 5 4 3 3 4 3 4 3 2 3 1 1 0 1 0 1 0
7 7 6 7 6 7 7 6 6 6 6 5 6 6 7 7 6 6 5 5 4 3 3 3 3 4 4 4 4 4 4 4 4 4 5 4 3 3 4 4 4 4 4 4 4 5 4 4 4 4 3 3 4 5 3 4 3 3 2 1 2 1
9 7 8 7 8 6 6 7 6 6 6 5 6 6 7 7 6 7 6 5 5 5 3 3 3 4 4 5 4 4 4 5 4 4 4 4 4 4 4 4 4 4 4 4 4 5 5 4 4 4 4 2 5 4 4 2 4 4 2 3 4 1
11 8 8 8 8 8 7 7 6 7 6 5 6 6 7 7 6 6 6 7 7 6 6 6 5 5 5 5 4 5 4 4 4 5 5 5 5 4 4 4 4 5 4 4 4 4 4 4 3 3 3 4 3 3 3 3 3 4 4 3 2 1
11 8 8 10 8 8 8 7 6 6 6 5 6 6 6 7 7 6 5 6 6 6 6 6 7 6 4 4 4 4 4 4 4 5 5 4 4 4 4 4 4 4 4 3 4 4 4 4 4 4 3 4 2 2 2 2 3 3 4 3 4 4
14 11 10 10 9 9 8 7 7 7 7 6 5 6 6 6 6 6 7 6 7 6 6 6 5 4 5 5 5 5 4 4 4 4 4 4 4 4 4 5 3 4 4 3 4 4 3 3 4 3 3 2 2 1 1 3 3 4 3 3 3 4
12 10 10 11 11 9 8 7 7 8 7 6 6 6 7 7 7 6 6 7 7 8 6 5 6 4 6 4 5 5 5 5 4 4 4 4 4 4 4 4 4 4 4 3 4 4 4 4 4 3 3 3 2 3 3 2 3 4 3 2 3 4
Wind_Direction
164 162 174 175 165 163 169 158 155 151 144 142 142 141 145 142 141 134 146 145 125 83 118 94 77 120 34 359 17 10 11 36 13 28 58 49 61 69 43 45 134 122 113 108 105 96 102 106 106 104 100 98 89 77 75 72 71 73 73 79 84 86
168 178 177 172 173 166 170 140 115 118 115 129 138 127 89 65 74 356 54 103 131 151 112 108 105 20 99 328 331 332 337 345 359 352 334 17 81 74 64 57 94 128 124 122 107 90 97 110 109 107 105 99 90 88 79 77 74 72 72 76 93 95
175 176 178 177 143 144 116 134 136 105 113 103 85 71 25 47 54 46 56 5 101 118 78 43 56 43 87 237 300 306 316 333 350 345 334 304 156 117 133 149 178 144 130 126 107 96 97 97 105 105 102 97 90 90 89 85 83 83 85 84 83 90
175 176 170 170 151 170 182 167 97 64 71 79 68 78 49 7 65 73 63 67 60 30 9 34 36 40 38 22 335 332 333 342 5 348 13 20 14 326 184 185 202 171 131 74 84 97 99 99 106 109 106 100 97 93 86 78 73 58 55 79 91 89
185 177 168 186 171 194 214 122 96 147 112 114 93 87 125 93 72 70 68 69 54 49 50 45 33 42 38 21 14 7 359 17 5 1 7 36 27 346 258 216 295 4 137 96 95 107 113 115 115 114 111 110 101 89 79 74 81 75 64 71 88 91
194 192 186 192 189 194 165 103 123 124 116 120 130 116 84 73 63 63 73 65 52 43 40 41 35 33 36 27 28 12 4 6 32 25 26 36 22 28 268 237 179 193 216 94 113 123 122 127 128 121 118 109 99 87 82 79 74 73 67 73 89 91
193 183 221 210 157 100 92 128 132 138 116 97 91 88 83 80 75 66 64 72 70 52 41 43 33 33 27 27 34 13 358 352 37 32 13 31 29 7 11 251 214 203 136 94 112 126 125 131 133 128 120 110 100 92 82 77 71 70 71 78 92 94
193 156 158 118 125 151 144 128 135 105 99 123 104 96 97 101 91 77 63 67 94 83 58 44 36 36 360 36 22 3 3 25 28 26 20 37 17 14 350 339 200 194 129 135 141 146 139 139 133 126 119 112 103 94 89 82 74 64 60 74 91 97
126 119 117 148 118 105 104 107 107 112 117 107 102 109 115 97 92 90 79 74 74 67 53 47 43 21 14 45 14 16 15 27 18 19 19 18 23 357 357 319 328 162 138 170 150 152 141 132 122 118 121 116 106 100 95 88 82 79 73 67 85 101
126 132 140 116 117 104 107 106 103 109 117 107 116 120 97 86 92 90 91 88 80 87 76 65 51 27 53 43 33 22 22 18 21 12 19 12 356 5 343 341 98 109 143 176 147 137 101 109 109 121 123 119 109 109 106 102 96 89 71 69 82 98
140 134 111 102 100 103 102 109 113 120 122 126 129 110 100 96 81 82 79 77 72 75 83 57 58 56 42 59 40 38 15 11 26 6 6 1 353 2 346 350 62 87 119 117 105 104 111 109 116 121 120 116 120 119 113 112 105 97 89 82 78 84
132 121 105 105 107 110 115 119 115 113 119 121 116 111 104 94 84 78 78 70 67 72 80 60 59 53 74 67 57 44 21 29 16 359 1 359 353 5 27 9 39 62 84 94 91 87 106 122 131 135 128 124 129 126 124 121 115 106 98 87 84 86
115 106 112 119 117 125 124 107 109 123 131 135 126 105 98 100 103 102 86 82 77 76 66 71 60 78 90 82 77 53 32 22 4 357 355 355 1 21 39 33 43 62 76 82 82 81 94 106 128 123 125 125 121 118 120 117 114 111 109 108 101 93
110 105 112 122 122 121 125 113 114 131 135 111 89 104 106 111 110 101 96 90 83 72 61 54 83 85 98 84 68 63 57 16 351 0 9 12 38 36 51 59 64 73 77 86 87 89 98 99 96 100 110 115 116 129 129 122 126 126 126 123 114 97
116 105 111 120 124 129 110 108 107 101 116 109 133 107 107 95 94 99 91 91 92 78 64 62 75 101 71 79 65 43 34 349 353 14 29 19 54 48 62 74 88 90 85 81 83 75 88 97 106 106 119 121 130 138 134 137 137 140 142 136 116 112
112 115 124 134 130 117 110 115 121 123 111 128 119 113 112 115 113 103 109 109 98 84 69 66 74 89 83 58 71 67 23 10 16 33 41 31 42 41 59 82 51 103 95 87 89 71 75 91 96 106 119 127 139 137 135 139 149 153 152 131 127 130
134 122 114 106 101 114 116 120 121 123 122 120 123 119 121 127 120 124 136 110 89 87 76 76 82 93 92 75 73 69 25 26 25 50 49 37 41 30 61 87 57 44 104 106 96 96 82 89 95 102 114 124 130 131 145 162 159 156 134 136 140 140
146 114 121 127 132 129 126 120 107 116 98 97 106 116 126 123 130 143 140 124 109 93 87 87 87 83 79 82 78 74 39 30 44 50 52 45 26 36 50 81 84 43 90 106 101 108 105 94 95 98 102 115 122 127 146 146 151 139 143 147 153 152
130 109 117 121 130 116 110 98 84 74 90 96 97 116 126 123 154 139 118 122 112 100 88 72 73 70 81 74 68 56 53 35 60 61 55 45 28 24 50 45 89 79 63 75 117 123 122 109 95 96 99 104 115 132 140 145 145 147 155 151 152 153
118 122 121 114 120 120 118 108 90 70 80 93 111 120 107 126 122 108 116 106 103 102 87 83 78 76 78 81 77 65 64 46 59 66 56 44 25 30 41 60 56 88 76 67 61 89 111 103 83 75 89 80 97 128 141 154 151 147 138 135 143 143
137 133 128 131 134 136 114 76 56 92 127 142 130 112 105 110 100 122 116 109 98 88 94 89 86 87 82 77 73 63 67 46 61 69 68 69 64 57 52 73 78 52 90 70 32 18 49 85 95 60 33 46 51 51 111 126 126 133 135 148 145 145
132 141 144 152 160 137 135 161 149 160 153 153 128 122 128 127 125 121 118 113 111 102 93 95 95 89 87 85 65 53 54 57 63 75 81 74 68 61 57 53 71 58 21 96 48 357 328 84 29 134 114 19 350 351 36 56 75 109 142 147 154 144
155 151 160 154 141 137 129 122 119 168 153 126 308 146 134 141 118 98 98 117 119 115 108 91 88 95 94 91 93 74 55 46 37 58 71 58 67 58 61 69 78 114 82 33 72 15 13 87 147 131 135 81 19 61 331 9 343 283 213 164 147 156
164 159 165 168 160 150 161 173 120 142 184 138 157 105 80 67 97 98 92 100 105 118 123 114 98 90 89 96 97 97 82 60 49 55 99 80 58 58 57 53 74 102 121 74 25 10 15 357 128 113 44 100 213 121 288 292 262 284 330 246 152 170
166 168 179 180 171 158 133 78 67 57 82 67 55 76 89 61 78 107 108 108 137 128 130 117 110 105 112 126 121 109 89 88 73 61 84 88 81 87 82 86 87 90 85 138 102 130 359 32 70 107 138 97 34 36 213 245 118 274 9 189 260 205
168 168 175 197 175 135 144 136 112 124 125 117 121 125 143 162 136 133 148 149 132 131 126 130 136 122 120 126 130 120 108 93 85 76 84 96 103 74 57 66 53 111 97 83 143 106 89 10 47 75 111 158 166 173 192 238 101 247 319 286 255 226
175 183 183 197 173 137 131 153 154 161 158 162 159 213 197 176 145 158 140 141 154 142 142 138 155 140 126 135 138 130 111 104 100 94 92 90 77 83 81 76 77 73 82 111 93 96 119 285 15 39 38 50 87 125 157 124 208 82 237 302 340 226
180 181 189 184 174 152 155 167 160 162 161 167 169 180 169 167 152 149 137 155 146 161 156 149 152 173 152 129 120 105 93 95 97 102 95 93 109 112 90 67 74 90 75 80 108 123 115 41 145 220 4 49 51 65 61 86 113 164 166 177 262 289
181 182 188 165 174 167 164 169 163 162 166 186 181 166 159 148 151 148 129 147 139 153 158 175 165 147 122 105 124 127 116 109 106 107 106 105 108 106 113 113 92 77 85 72 90 127 110 107 104 128 63 39 45 53 50 57 65 81 128 130 274 230
184 182 181 169 175 172 172 166 153 168 168 183 148 127 138 155 155 143 141 159 150 147 162 154 130 121 110 116 126 127 130 133 130 128 110 124 111 99 106 108 120 120 112 97 92 108 118 138 113 110 115 148 96 34 30 10 21 48 50 87 172 209
185 172 172 174 181 171 171 163 159 169 173 173 156 150 143 151 148 141 156 171 158 169 165 170 142 127 126 130 130 135 137 147 150 131 121 122 127 129 133 126 123 106 105 114 112 105 100 103 112 94 88 108 135 155 172 158 204 93 134 132 65 322
184 175 174 174 183 173 166 167 166 168 174 185 156 165 165 166 177 176 174 176 180 156 189 167 157 132 126 126 127 128 131 139 145 138 148 150 153 149 144 128 114 109 111 108 107 99 107 101 97 94 87 122 126 125 109 128 180 152 130 183 143 191
187 181 177 175 179 182 171 170 172 178 179 183 168 178 175 175 183 178 175 166 170 181 185 159 191 167 174 150 143 138 135 133 145 158 158 155 168 156 139 116 116 116 120 118 126 124 114 138 133 120 135 151 136 124 123 156 136 141 105 117 123 116
188 179 178 177 182 179 185 181 177 180 183 182 180 185 181 183 188 185 176 169 178 182 185 192 185 193 194 167 160 168 158 156 148 154 162 169 166 166 143 131 134 130 137 153 131 130 138 147 134 151 151 124 116 129 130 151 143 122 143 112 87 140
187 184 179 183 183 186 188 189 187 186 185 183 186 188 192 189 185 185 192 174 183 185 186 196 195 197 185 176 169 161 159 153 149 146 158 163 155 138 136 133 138 145 146 157 148 139 151 139 138 140 131 138 154 95 89 133 114 110 132 140 152 168
187 187 184 184 188 188 193 190 190 191 191 190 190 191 203 195 193 190 188 182 186 192 199 193 200 176 187 174 170 168 163 165 162 149 158 159 145 138 143 138 146 150 162 164 145 148 171 143 150 155 147 169 105 153 153 138 123 141 138 155 135 139
190 190 187 187 189 190 192 190 197 197 192 193 193 191 203 201 198 201 194 190 187 199 195 192 192 184 176 181 176 169 165 168 172 166 159 163 151 150 156 156 161 170 182 197 155 161 165 151 174 155 137 154 174 180 201 168 133 146 149 119 136 152